Wind_Speed
57 50 48 44 47 41 41 33 44 49 45 44 37 39 38 39 45 45 38 40 42 45 46 46 49 49 53 52 51 48 53 51 50 52 55 58 60 61 63 61 59 59 61 60 61 60 56 54 52
61 55 49 50 47 41 39 42 46 49 48 40 42 41 37 44 49 46 44 49 52 50 48 52 51 54 51 49 49 49 53 55 57 57 59 62 64 63 64 60 61 61 61 61 62 59 54 53 57
54 56 56 51 52 49 46 48 55 57 55 54 52 48 40 42 51 51 51 56 51 49 50 49 50 51 50 46 46 49 51 56 59 60 63 65 64 62 60 62 65 65 62 61 64 61 56 57 59
56 51 50 50 57 54 53 53 58 61 62 58 59 51 45 45 48 52 53 52 53 49 51 54 54 49 45 45 50 53 52 50 54 58 59 60 61 61 63 62 65 66 64 64 66 60 59 60 63
63 59 51 57 55 52 55 57 59 58 58 58 58 48 39 42 46 48 49 52 51 55 55 54 43 45 49 52 56 56 58 60 60 57 59 59 62 66 67 63 64 65 63 67 63 63 63 63 63
76 66 60 61 55 55 55 59 58 59 58 56 57 54 50 50 52 51 47 50 53 57 55 47 48 51 57 60 57 57 58 61 61 61 63 61 65 69 69 66 64 64 65 66 64 65 64 63 61
72 72 73 65 62 61 64 62 62 61 58 58 56 57 51 53 45 46 46 43 46 50 52 50 54 56 62 63 62 59 55 62 63 65 67 65 73 72 71 66 67 65 68 68 65 66 64 61 54
80 69 71 72 65 63 70 60 63 65 63 55 57 59 55 47 46 47 48 43 48 47 51 54 57 54 56 65 65 61 56 62 66 68 67 70 76 75 72 69 68 69 71 69 66 65 63 57 48
77 68 66 64 63 65 74 66 65 63 62 61 58 62 54 52 55 53 49 47 55 53 57 59 60 58 59 61 66 65 60 62 67 70 66 73 76 73 71 71 73 75 71 69 67 65 60 54 51
89 81 77 77 73 67 69 65 66 66 64 64 66 62 64 65 67 64 61 62 59 59 61 65 64 65 63 63 66 65 64 65 68 68 70 76 77 75 73 75 76 74 71 68 67 64 55 54 50
93 84 77 79 82 83 74 69 67 66 64 67 68 68 68 73 73 74 69 69 68 63 61 65 65 56 59 62 66 68 64 65 69 77 76 78 79 76 74 75 74 73 68 67 66 61 54 53 52
101 93 89 82 83 81 77 78 73 76 73 75 76 72 76 74 75 74 73 72 71 69 66 67 63 63 65 62 64 67 68 70 76 79 77 76 78 76 74 74 73 70 66 65 64 61 56 55 52
100 87 95 91 90 89 88 86 79 78 77 76 75 77 73 73 73 74 71 67 67 66 62 60 62 65 61 62 62 64 71 74 78 79 75 75 76 76 74 73 70 64 65 65 62 61 57 51 46
90 96 96 93 90 88 88 80 80 74 80 81 81 80 80 79 76 75 64 61 61 61 61 61 63 67 73 64 65 69 74 75 77 76 72 75 76 75 73 70 65 63 64 65 62 59 55 47 41
104 103 96 88 82 81 86 82 78 76 77 75 74 75 71 72 71 69 65 62 63 68 71 70 65 69 65 62 64 72 75 75 76 73 73 74 73 72 70 66 61 62 64 64 61 56 47 40 36
96 99 98 79 81 80 85 74 71 72 73 80 83 78 73 71 68 69 69 71 75 74 72 68 65 66 71 72 71 73 73 72 71 70 70 69 69 68 66 63 61 63 64 62 58 52 46 39 38
94 89 87 81 84 88 91 70 72 75 79 82 79 73 73 69 69 71 72 71 70 71 72 72 74 76 78 77 76 75 71 68 67 66 65 66 66 63 61 61 62 64 62 59 53 51 47 38 37
94 91 85 85 90 95 99 85 80 80 82 83 77 76 72 71 69 70 72 73 73 73 75 76 79 80 82 83 78 72 67 64 63 61 61 61 58 59 61 60 62 61 59 54 50 46 45 39 38
95 94 91 90 92 91 93 92 86 86 85 86 76 72 73 72 73 74 75 75 77 79 79 78 76 78 77 77 73 68 66 62 58 57 56 54 52 53 56 60 59 57 54 50 43 51 42 40 34
99 96 87 88 90 89 90 91 85 79 73 80 73 74 78 71 76 74 72 78 78 79 78 76 74 69 72 72 69 63 60 56 54 54 52 52 52 53 56 56 55 54 53 49 49 44 43 36 31
100 100 100 96 95 88 90 82 81 77 74 74 73 73 74 75 76 75 78 74 72 71 68 64 64 66 66 64 59 54 51 50 51 50 48 49 50 53 53 52 52 48 47 45 40 35 35 30 26
98 100 102 107 106 99 102 85 82 76 75 76 76 74 73 76 74 75 67 64 64 61 57 56 57 56 55 53 49 46 43 45 45 47 47 47 50 50 50 49 46 44 33 27 28 27 24 21 21
96 98 98 99 99 97 93 93 72 81 78 78 80 75 73 72 70 65 58 58 53 51 48 49 51 50 44 43 40 37 38 41 43 43 44 47 47 47 45 44 41 32 21 21 19 18 18 14 13
101 100 98 95 94 91 85 82 67 72 77 77 71 63 61 60 56 52 51 49 46 42 44 47 45 40 38 35 32 31 33 38 39 41 44 44 43 41 39 38 31 19 20 19 18 14 13 12 12
102 104 102 97 90 76 82 73 60 64 69 64 56 51 50 49 46 45 42 36 36 39 39 37 34 33 30 28 28 29 33 34 38 41 41 39 37 35 33 34 21 15 18 10 10 10 11 9 8
100 100 99 95 91 84 82 67 58 54 57 52 47 45 42 37 35 34 31 29 34 34 31 29 26 24 23 24 26 28 30 35 36 38 37 33 30 30 32 23 11 12 5 7 9 11 10 5 5
100 94 89 89 86 84 75 66 60 59 55 49 39 35 33 29 25 26 26 27 30 24 22 21 19 19 21 23 25 27 33 33 34 33 28 28 29 28 22 10 8 5 6 6 9 7 7 2 2
102 97 95 89 84 74 63 57 49 54 49 39 27 29 27 26 23 22 20 24 22 17 12 14 18 18 19 23 28 29 29 31 30 25 24 27 25 18 11 4 4 4 4 6 11 9 8 6 5
103 102 99 95 86 75 63 50 48 56 47 36 30 34 29 25 20 19 19 22 13 10 16 18 21 19 23 27 28 28 30 27 23 18 23 24 19 10 8 3 3 4 3 5 7 9 5 6 6
103 101 98 98 87 75 66 54 56 58 43 38 35 32 28 26 22 18 18 17 11 15 19 20 21 24 26 28 26 28 26 22 16 18 20 21 14 7 8 3 2 1 4 2 10 4 1 4 0
Wind_Direction
251 247 254 264 261 261 265 264 274 270 259 263 273 274 274 272 284 279 285 286 289 294 295 298 300 296 297 299 302 302 305 300 303 304 304 307 308 310 311 308 306 301 303 301 303 302 296 287 274
257 255 257 259 258 262 269 260 263 273 260 259 264 264 276 281 283 283 281 284 289 288 292 300 300 299 300 299 303 302 304 301 300 300 302 306 306 306 307 304 304 301 301 299 302 300 291 285 279
249 245 249 253 257 254 264 262 261 261 264 267 266 271 275 282 283 282 281 284 287 290 294 299 298 297 300 302 304 308 306 300 298 299 301 303 305 304 303 302 303 304 303 298 301 299 290 285 280
244 248 250 249 253 258 257 256 261 261 266 266 269 272 278 283 281 278 282 283 285 288 291 296 295 294 294 303 307 310 308 304 300 300 301 306 305 304 305 302 301 304 303 301 301 299 292 289 286
244 245 250 250 257 256 257 261 265 266 266 269 274 274 277 282 282 283 281 283 282 285 288 292 290 289 294 302 308 311 311 310 301 298 302 306 304 303 302 299 298 302 302 302 302 299 293 287 284
242 243 245 248 255 257 260 261 262 259 261 265 272 278 278 272 280 273 276 281 283 285 286 285 293 300 301 303 306 311 310 309 305 301 299 301 305 302 301 300 300 301 304 304 303 299 295 291 287
241 243 245 248 255 256 257 256 258 259 261 263 268 273 270 274 276 275 277 278 278 282 282 287 294 302 308 308 309 310 308 307 308 306 301 298 304 304 304 303 303 303 306 306 305 302 299 294 285
243 245 248 250 252 257 256 258 256 258 259 262 265 265 269 270 274 271 277 274 280 281 285 291 295 302 303 307 309 309 307 306 308 306 304 303 305 305 308 307 307 308 308 307 306 305 303 296 289
244 243 247 251 253 253 257 257 256 257 260 260 261 267 269 272 274 276 275 275 277 279 286 289 291 295 299 302 304 304 305 306 307 306 301 305 307 308 309 309 308 309 310 309 309 307 303 297 296
249 248 250 252 252 252 254 251 256 259 261 264 264 268 269 270 272 274 277 283 279 282 284 288 288 291 295 297 298 295 303 306 309 308 301 303 307 309 308 309 308 309 310 310 310 307 302 301 297
250 249 251 255 255 254 252 256 257 260 264 268 269 270 273 280 278 276 275 279 281 283 289 290 290 291 294 296 296 296 300 304 306 310 304 302 306 308 308 308 310 310 310 310 311 308 304 304 300
249 250 251 252 253 252 253 254 258 264 265 267 273 274 276 275 276 279 280 280 280 284 287 291 294 293 295 301 298 299 299 305 307 307 305 303 306 308 308 309 309 310 310 312 312 310 308 306 299
250 251 250 251 256 258 258 260 261 266 267 268 270 272 272 276 277 279 280 284 285 287 289 291 295 298 298 296 297 300 302 304 305 303 304 304 306 306 308 309 309 311 311 313 312 311 308 302 293
248 247 250 251 253 256 258 258 262 264 262 263 261 265 271 271 273 281 287 286 285 285 286 289 292 294 296 300 300 300 300 301 300 301 304 304 305 306 309 309 311 310 314 313 312 309 306 297 286
246 248 251 253 255 256 256 255 259 261 262 262 263 267 271 275 283 286 283 283 284 287 289 291 293 296 297 296 299 299 300 297 297 301 302 304 305 306 309 309 310 311 313 311 309 307 300 292 286
245 247 247 249 251 251 254 255 257 256 260 262 265 268 275 278 279 279 280 280 284 287 289 293 292 294 296 299 301 300 297 296 297 299 302 304 305 307 307 308 310 313 311 309 307 300 290 275 266
245 248 247 249 256 255 258 250 259 262 262 263 268 273 277 277 277 279 282 283 285 289 291 293 294 295 295 298 297 296 293 293 295 298 302 304 305 305 306 310 312 310 308 306 301 297 291 282 271
247 248 245 243 251 253 253 248 253 260 264 266 269 272 275 276 276 276 279 282 284 287 291 292 294 295 293 293 293 291 290 291 293 298 301 302 303 303 306 309 307 307 305 303 297 291 291 285 285
245 245 242 244 248 252 255 251 252 256 260 266 270 271 271 270 271 277 279 283 286 288 289 290 292 291 292 290 289 289 289 288 292 295 297 299 298 301 304 306 306 306 305 300 291 294 293 288 277
243 244 245 244 248 249 251 251 252 256 259 264 263 266 265 269 272 277 283 287 286 287 287 288 287 291 288 287 287 287 287 289 290 293 297 298 302 302 306 308 308 308 305 302 300 297 295 291 285
243 244 242 244 246 248 249 250 253 255 256 258 262 265 266 271 274 278 284 282 281 283 285 287 288 285 284 286 287 288 289 291 294 297 299 302 304 306 309 309 308 307 303 296 293 291 290 289 281
243 244 245 245 247 250 254 248 251 256 256 258 260 263 268 267 275 280 281 282 283 283 283 282 281 282 283 286 287 288 292 295 298 299 303 305 306 308 309 310 310 308 304 298 294 294 293 287 274
240 242 243 245 248 249 253 254 255 255 257 257 260 265 267 271 276 279 279 278 282 282 281 279 278 282 288 286 287 289 292 297 297 301 305 305 307 310 309 309 311 307 310 308 303 302 303 297 279
241 242 244 246 247 248 251 254 253 255 255 259 262 266 268 270 272 272 273 275 278 281 278 280 280 286 286 286 286 288 293 296 300 305 305 307 309 306 309 307 305 302 312 309 299 300 306 312 304
240 243 244 245 246 246 248 249 251 253 255 259 265 267 268 268 267 268 269 273 276 279 283 287 286 284 284 282 286 289 296 300 303 303 305 306 306 307 304 304 302 308 315 313 345 335 329 320 328
240 241 243 245 246 246 246 247 249 253 252 258 262 263 263 260 258 259 268 269 276 282 291 293 283 283 281 283 290 295 301 303 302 305 306 306 305 304 303 297 303 316 321 349 360 343 343 7 353
240 242 243 244 246 246 247 246 244 246 254 255 256 253 249 246 253 263 264 275 281 292 289 284 285 283 288 294 301 304 306 303 306 306 305 307 310 306 296 284 310 294 312 360 5 350 16 65 123
239 239 240 242 243 244 244 243 238 238 244 246 238 231 240 252 258 258 266 283 289 290 293 297 298 293 298 303 306 309 303 308 307 306 303 310 309 300 295 291 292 254 330 2 20 75 58 101 117
233 236 238 238 237 238 236 237 235 236 234 236 224 235 246 250 259 266 284 289 277 277 299 302 295 297 301 306 312 308 309 308 302 292 305 313 313 298 325 280 256 262 303 27 79 114 156 160 191
231 234 235 236 236 237 232 229 235 238 234 236 237 240 247 255 253 267 290 274 262 286 289 293 293 295 302 313 309 312 312 300 297 297 309 313 311 320 345 339 204 229 321 48 148 148 255 190 355
Height
10934 10935 10935 10936 10935 10936 10940 10944 10941 10940 10940 10941 10946 10948 10948 10946 10945 10944 10947 10945 10942 10941 10941 10938 10934 10930 10927 10923 10919 10916 10913 10910 10906 10903 10899 10894 10891 10887 10882 10879 10875 10871 10868 10866 10863 10858 10857 10855 10855
10928 10928 10928 10929 10927 10928 10933 10936 10932 10928 10932 10935 10939 10942 10947 10940 10936 10938 10940 10937 10937 10935 10934 10931 10927 10923 10919 10916 10914 10910 10908 10904 10899 10895 10891 10886 10881 10877 10874 10870 10865 10862 10859 10855 10852 10849 10846 10843 10840
10919 10918 10921 10922 10917 10917 10923 10924 10920 10921 10921 10923 10927 10935 10945 10938 10929 10929 10930 10928 10926 10927 10924 10921 10919 10914 10912 10909 10907 10905 10902 10898 10892 10887 10883 10878 10873 10868 10864 10858 10853 10849 10846 10843 10840 10835 10833 10830 10826
10907 10911 10914 10912 10906 10909 10911 10909 10911 10912 10917 10913 10917 10931 10934 10935 10927 10923 10924 10923 10920 10919 10917 10914 10912 10908 10905 10903 10900 10898 10894 10890 10882 10878 10874 10870 10864 10858 10854 10849 10843 10838 10834 10829 10825 10822 10819 10815 10811
10898 10904 10907 10902 10899 10900 10897 10901 10904 10903 10907 10903 10910 10921 10928 10926 10926 10921 10917 10917 10915 10912 10910 10907 10904 10900 10897 10894 10891 10888 10883 10880 10874 10868 10864 10858 10853 10847 10843 10840 10834 10828 10824 10818 10813 10809 10803 10800 10796
10887 10895 10896 10894 10892 10892 10887 10889 10892 10890 10896 10901 10898 10908 10915 10921 10919 10916 10914 10909 10905 10902 10900 10897 10894 10888 10884 10883 10882 10881 10872 10865 10861 10858 10852 10848 10844 10837 10831 10827 10822 10817 10812 10805 10799 10793 10787 10782 10777
10875 10884 10886 10886 10883 10885 10869 10881 10881 10884 10887 10890 10894 10895 10903 10907 10912 10910 10909 10904 10900 10897 10892 10889 10887 10883 10871 10866 10868 10867 10863 10854 10849 10846 10841 10836 10831 10824 10817 10813 10808 10803 10797 10791 10784 10776 10769 10764 10760
10864 10877 10880 10880 10874 10875 10848 10873 10870 10871 10877 10885 10884 10883 10892 10897 10899 10902 10901 10898 10892 10890 10886 10883 10878 10875 10871 10857 10852 10852 10854 10846 10840 10834 10831 10824 10818 10812 10805 10798 10792 10788 10782 10775 10768 10761 10752 10746 10742
10853 10870 10869 10867 10864 10861 10839 10865 10860 10864 10865 10874 10878 10879 10883 10883 10886 10888 10890 10890 10887 10887 10879 10878 10875 10868 10864 10855 10844 10839 10842 10837 10830 10824 10819 10813 10805 10799 10793 10786 10779 10773 10766 10758 10752 10745 10738 10730 10725
10842 10854 10856 10849 10850 10852 10837 10855 10847 10854 10855 10862 10865 10870 10869 10875 10877 10876 10878 10878 10878 10878 10872 10872 10871 10859 10857 10850 10840 10833 10830 10824 10818 10813 10807 10801 10794 10788 10782 10774 10766 10758 10751 10744 10736 10730 10724 10716 10711
10825 10843 10835 10835 10838 10837 10835 10838 10844 10844 10851 10851 10855 10855 10857 10858 10860 10867 10866 10866 10867 10865 10858 10859 10858 10849 10848 10841 10830 10820 10820 10814 10807 10802 10795 10788 10782 10776 10771 10762 10753 10745 10738 10730 10722 10714 10708 10702 10696
10807 10822 10821 10822 10818 10823 10834 10827 10843 10838 10844 10841 10842 10844 10845 10848 10845 10845 10851 10853 10854 10851 10851 10845 10839 10836 10836 10830 10822 10812 10806 10801 10795 10789 10782 10776 10769 10763 10758 10749 10741 10732 10723 10716 10708 10699 10694 10688 10682
10796 10804 10803 10806 10809 10816 10816 10827 10832 10836 10832 10826 10832 10831 10834 10830 10835 10839 10839 10837 10837 10840 10838 10834 10827 10822 10822 10819 10813 10803 10795 10789 10782 10776 10770 10762 10756 10750 10746 10737 10728 10720 10711 10704 10696 10686 10681 10677 10672
10776 10777 10787 10795 10803 10803 10802 10813 10817 10827 10816 10816 10818 10824 10824 10823 10826 10827 10826 10826 10825 10826 10826 10824 10817 10813 10810 10807 10802 10795 10787 10779 10771 10764 10757 10749 10743 10738 10732 10724 10717 10708 10699 10691 10684 10676 10669 10665 10663
10754 10760 10769 10787 10790 10788 10775 10806 10816 10802 10792 10805 10807 10812 10816 10815 10815 10815 10815 10815 10813 10812 10808 10806 10803 10799 10798 10797 10793 10784 10775 10766 10759 10751 10743 10736 10729 10723 10718 10711 10705 10697 10688 10681 10673 10666 10660 10654 10651
10732 10740 10763 10780 10769 10766 10747 10808 10791 10778 10785 10790 10796 10804 10804 10805 10803 10802 10802 10803 10801 10799 10796 10789 10790 10787 10783 10782 10779 10772 10763 10755 10747 10739 10730 10723 10716 10710 10705 10700 10692 10683 10676 10669 10662 10657 10654 10651 10647
10717 10740 10750 10759 10741 10737 10734 10798 10771 10770 10771 10780 10787 10792 10793 10795 10791 10790 10788 10789 10788 10788 10785 10776 10773 10772 10769 10768 10765 10758 10752 10744 10736 10728 10720 10712 10704 10698 10692 10686 10679 10673 10665 10658 10651 10645 10640 10637 10637
10704 10715 10730 10733 10724 10715 10724 10770 10761 10758 10763 10769 10778 10779 10782 10782 10782 10779 10778 10778 10779 10779 10773 10766 10763 10756 10753 10750 10750 10745 10739 10734 10727 10720 10711 10704 10697 10687 10681 10676 10671 10662 10654 10647 10641 10635 10630 10626 10625
10680 10691 10706 10708 10705 10703 10715 10737 10750 10748 10756 10757 10763 10767 10769 10770 10769 10767 10769 10769 10766 10763 10758 10754 10752 10743 10736 10730 10732 10729 10724 10721 10719 10711 10706 10697 10694 10687 10677 10668 10660 10651 10643 10638 10630 10624 10619 10616 10614
10659 10672 10690 10686 10686 10694 10691 10718 10735 10740 10750 10752 10753 10754 10755 10762 10758 10757 10759 10757 10753 10747 10743 10742 10737 10733 10722 10715 10711 10711 10709 10708 10706 10702 10697 10689 10683 10676 10667 10658 10647 10639 10632 10625 10619 10614 10608 10606 10604
10644 10652 10664 10667 10668 10681 10678 10707 10722 10731 10735 10738 10744 10744 10747 10748 10747 10748 10747 10743 10739 10735 10733 10729 10723 10717 10711 10704 10700 10698 10695 10692 10691 10689 10685 10678 10671 10663 10656 10647 10637 10629 10623 10617 10612 10607 10603 10598 10596
10624 10630 10636 10645 10653 10672 10663 10698 10706 10717 10724 10725 10727 10732 10739 10733 10738 10735 10733 10727 10724 10723 10720 10716 10711 10705 10699 10696 10692 10688 10684 10680 10679 10675 10671 10666 10659 10652 10645 10637 10629 10623 10616 10611 10606 10601 10596 10592 10590
10605 10606 10615 10625 10638 10649 10665 10666 10714 10700 10709 10702 10707 10726 10727 10726 10726 10724 10718 10713 10710 10709 10707 10703 10697 10693 10690 10686 10683 10678 10675 10674 10670 10667 10662 10656 10649 10642 10635 10629 10622 10616 10612 10607 10603 10599 10593 10589 10586
10577 10587 10597 10610 10624 10639 10657 10664 10694 10687 10681 10688 10701 10715 10718 10714 10713 10709 10705 10702 10700 10697 10695 10692 10688 10684 10681 10677 10674 10671 10669 10666 10663 10659 10653 10646 10640 10634 10628 10623 10619 10613 10609 10605 10600 10596 10591 10586 10584
10559 10568 10580 10593 10610 10646 10634 10657 10680 10667 10668 10680 10694 10700 10701 10701 10699 10696 10695 10694 10691 10687 10684 10681 10677 10675 10672 10669 10667 10664 10663 10661 10656 10651 10645 10639 10634 10628 10623 10619 10614 10610 10606 10602 10597 10593 10589 10585 10582
10536 10549 10566 10583 10597 10617 10618 10654 10666 10649 10653 10678 10687 10686 10687 10688 10688 10688 10687 10686 10682 10679 10675 10672 10669 10666 10665 10662 10661 10660 10658 10655 10649 10644 10638 10633 10628 10624 10619 10614 10610 10606 10603 10600 10596 10591 10587 10584 10582
10522 10538 10554 10563 10580 10594 10617 10638 10651 10640 10645 10665 10676 10675 10676 10679 10680 10680 10679 10678 10674 10671 10668 10665 10663 10661 10659 10657 10657 10656 10652 10647 10642 10637 10633 10628 10623 10618 10613 10609 10607 10604 10601 10598 10595 10591 10588 10585 10584
10504 10518 10529 10549 10562 10584 10609 10627 10644 10632 10639 10655 10665 10665 10668 10672 10672 10672 10671 10669 10666 10664 10663 10661 10660 10658 10655 10653 10652 10649 10646 10641 10635 10632 10627 10624 10620 10614 10609 10606 10604 10601 10600 10597 10595 10593 10591 10589 10587
10480 10493 10509 10523 10546 10573 10597 10619 10629 10615 10630 10647 10656 10658 10661 10665 10664 10664 10664 10661 10660 10660 10659 10658 10656 10654 10652 10650 10647 10643 10638 10634 10631 10628 10624 10620 10616 10611 10606 10603 10601 10600 10599 10597 10596 10595 10592 10590 10588
10457 10473 10487 10504 10540 10564 10587 10613 10609 10604 10629 10639 10646 10650 10654 10656 10658 10659 10658 10657 10656 10656 10655 10654 10652 10651 10648 10644 10641 10637 10633 10630 10627 10624 10621 10617 10613 10607 10604 10600 10598 10599 10598 10597 10598 10596 10595 10594 10594